Weather History for Lamoni, IA

Change the Weather History Date:

Wednesday, March 6, 2013

  Actual Average Record
Temperature  
Mean Temperature 27 °F 36 °F  
Max Temperature 33 °F 45 °F 71 °F (2012)
Min Temperature 21 °F 26 °F 6 °F (1982)
Degree Days  
Heating Degree Days 38 29  
Month to date heating degree days 222 183  
Since 1 July heating degree days 4620 4900  
Cooling Degree Days 0 0  
Month to date cooling degree days 0 0  
Year to date cooling degree days 0 0  
Moisture  
Dew Point 18 °F    
Average Humidity 70    
Maximum Humidity 81    
Minimum Humidity 58    
Precipitation  
Precipitation 0.00 in 0.06 in 0.50 in (1973)
Month to date precipitation 0.05 0.36  
Sea Level Pressure  
Sea Level Pressure 30.38 in    
Wind  
Wind Speed 8 mph (North)    
Max Wind Speed 20 mph    
Max Gust Speed 24 mph    
Visibility 10 miles    
Events      
T = Trace of Precipitation, MM = Missing Value Source: NWS Daily Summary

Daily Weather History Graph

Daily Weather History Graph

Search for Another Location

Airport:

Trip Planner

Search our weather history database for the weather conditions in past years. The results will help you decide how hot, cold, wet, or windy it might be!

Date:

Astronomy

Mar. 06, 2013 Rise Set
Actual Time 6:41 AM CST 6:12 PM CST
Civil Twilight 6:13 AM CST 6:40 PM CST
Nautical Twilight 5:42 AM CST 7:11 PM CST
Astronomical Twilight 5:10 AM CST 7:43 PM CST
Moon 2:52 AM CST (3/6) 12:54 PM CST (3/6)
Length of Visible Light 12h 26m
Length of Day
11h 31m
Waning Crescent, 29% of the Moon is Illuminated
Mar 6
Waning Crescent
Mar 11
New
Mar 19
First Quarter
Mar 27
Full
Apr 2
Last Quarter

Hourly Weather History & Observations

Time (CST) Temp. Windchill Dew Point Humidity Pressure Visibility Wind Dir Wind Speed Gust Speed Precip Events Conditions
12:53 AM 25.0 °F 11.7 °F 18.0 °F 75% 30.33 in 10.0 mi NNW 17.3 mph - N/A   Overcast
1:37 AM 24.8 °F 13.4 °F 17.6 °F 74% 30.31 in 10.0 mi NW 12.7 mph - N/A   Overcast
1:53 AM 25.0 °F 12.6 °F 18.0 °F 75% 30.36 in 10.0 mi NW 15.0 mph - N/A   Overcast
2:53 AM 25.0 °F 11.3 °F 18.0 °F 75% 30.37 in 10.0 mi NNW 18.4 mph 24.2 mph N/A   Overcast
3:53 AM 24.1 °F 14.4 °F 19.0 °F 81% 30.38 in 10.0 mi NNW 9.2 mph - N/A   Overcast
4:53 AM 24.1 °F 12.0 °F 17.1 °F 75% 30.39 in 10.0 mi NNW 13.8 mph - N/A   Overcast
5:53 AM 25.0 °F 13.1 °F 16.0 °F 69% 30.41 in 10.0 mi North 13.8 mph - N/A   Overcast
6:53 AM 24.1 °F 13.7 °F 16.0 °F 71% 30.42 in 10.0 mi North 10.4 mph - N/A   Overcast
7:53 AM 24.1 °F 11.0 °F 17.1 °F 75% 30.44 in 10.0 mi North 16.1 mph 21.9 mph N/A   Overcast
8:53 AM 25.0 °F 13.1 °F 17.1 °F 72% 30.45 in 10.0 mi North 13.8 mph - N/A   Overcast
9:53 AM 26.1 °F 16.2 °F 18.0 °F 71% 30.45 in 10.0 mi NNW 10.4 mph - N/A   Overcast
10:53 AM 27.0 °F 18.0 °F 17.1 °F 66% 30.44 in 10.0 mi North 9.2 mph - N/A   Overcast
11:36 AM 28.4 °F 20.4 °F 17.6 °F 64% 30.38 in 10.0 mi NNE 8.1 mph - N/A   Scattered Clouds
11:53 AM 28.0 °F 20.0 °F 18.0 °F 66% 30.43 in 10.0 mi ENE 8.1 mph - N/A   Clear
12:53 PM 30.0 °F 24.1 °F 18.0 °F 61% 30.42 in 10.0 mi WNW 5.8 mph - N/A   Mostly Cloudy
1:01 PM 30.2 °F - 17.6 °F 60% 30.37 in 10.0 mi Calm Calm - N/A   Scattered Clouds
1:11 PM 30.2 °F 23.4 °F 17.6 °F 60% 30.36 in 10.0 mi NNW 6.9 mph - N/A   Mostly Cloudy
1:24 PM 30.2 °F 23.4 °F 17.6 °F 60% 30.36 in 10.0 mi NW 6.9 mph - N/A   Scattered Clouds
1:53 PM 30.9 °F 25.2 °F 18.0 °F 59% 30.40 in 10.0 mi NNW 5.8 mph - N/A   Clear
2:53 PM 32.0 °F 28.7 °F 19.0 °F 59% 30.39 in 10.0 mi WNW 3.5 mph - N/A   Partly Cloudy
3:53 PM 32.0 °F 28.7 °F 19.0 °F 59% 30.38 in 10.0 mi NW 3.5 mph - N/A   Partly Cloudy
4:53 PM 30.0 °F 26.5 °F 19.0 °F 64% 30.38 in 10.0 mi SSW 3.5 mph - N/A   Clear
5:53 PM 30.0 °F - 19.0 °F 64% 30.36 in 10.0 mi Calm Calm - N/A   Clear
6:53 PM 27.0 °F - 18.0 °F 69% 30.36 in 10.0 mi Calm Calm - N/A   Clear
7:53 PM 27.0 °F 23.0 °F 18.0 °F 69% 30.35 in 10.0 mi East 3.5 mph - N/A   Clear
8:53 PM 25.0 °F 20.7 °F 18.0 °F 75% 30.35 in 10.0 mi SE 3.5 mph - N/A   Clear
9:53 PM 24.1 °F - 17.1 °F 75% 30.36 in 10.0 mi Calm Calm - N/A   Clear
10:53 PM 23.0 °F 15.8 °F 17.1 °F 78% 30.35 in 10.0 mi East 5.8 mph - N/A   Clear
11:53 PM 21.0 °F 13.4 °F 16.0 °F 81% 30.36 in 10.0 mi East 5.8 mph - N/A   Clear